Вернуться в каталог

IRIDIUM 33 DEB

АктивенPO
NORAD 36483·DEBRIS·🇺🇸 United States

Запущен Sep 14, 1997 с Baikonur Cosmodrome

Loading…

Ближайшие Пролёты (ближайшие 24 часа)

TLE

СвежийSource: Space-Track

Эпоха: Sep 11, 2026, 10:05 UTC

1 36483U 97051VZ  26254.42033527  .00000907  00000-0  24574-3 0  9992
2 36483  86.3766 295.7071 0007082 313.2576  46.8035 14.46672415690873

Отслеживайте IRIDIUM 33 DEB в реальном времени с AllMySat

Download on the App Store